Overview Statistics Trail Chart Weather Telemetry Raw packets
 

This is the latest recevied weather packets stored in our database for station/object NB9X. If no packets are shown the sender has not sent any weather packets the latest 10 day(s).

<< 39 40 41 42 43 44 45 >>
Time Temp. Humidity Pressure Rain* Wind** Luminosity Snow
1788382763 27.22° C 100% 1012.4 hPa 0.25 mm - - -
1788382463 29.44° C 100% 1012.3 hPa 0 mm - - -
1788382163 31.67° C 100% 1012.2 hPa 0 mm - - -
1788381864 32.22° C 100% 1012.1 hPa 0 mm - - -
1788381563 33.33° C 100% 1012 hPa 0 mm - - -
1788381263 32.78° C 100% 1011.9 hPa 0 mm - - -
1788380963 33.89° C 100% 1011.9 hPa 0 mm - - -
1788380663 33.89° C 100% 1012 hPa 0 mm - - -
1788380363 33.89° C 100% 1012.1 hPa 0 mm - - -
1788380064 34.44° C 100% 1012.1 hPa 0 mm - - -
1788379764 32.78° C 100% 1012 hPa 0 mm - - -
1788379463 35° C 100% 1012 hPa 0 mm - - -
1788379164 33.33° C 100% 1012 hPa 0 mm - - -
1788378864 33.89° C 100% 1012.2 hPa 0 mm - - -
1788378564 33.89° C 100% 1012.3 hPa 0 mm - - -
1788378264 32.78° C 100% 1012.3 hPa 0 mm - - -
1788377664 33.89° C 100% 1012.7 hPa 0 mm - - -
1788377364 33.89° C 100% 1012.6 hPa 0 mm - - -
1788377064 33.89° C 100% 1012.6 hPa 0 mm - - -
1788376764 32.78° C 100% 1012.8 hPa 0 mm - - -
1788376464 33.89° C 100% 1012.8 hPa 0 mm - - -
1788376164 35° C 100% 1012.8 hPa 0 mm - - -
1788375864 32.78° C 100% 1012.9 hPa 0 mm - - -
1788375564 32.22° C 100% 1012.9 hPa 0 mm - - -
1788375264 32.22° C 100% 1013 hPa 0 mm - - -

* Rain latest hour (hover to see other rain measurements)
** Current wind speed in m/s (hover to see current wind gust speed)